Weather in Vogvazdino

Russia / Komi Republic     62°12′08″N   50°26′05″E
temp.,
°C
wind,
m/s
gust,
m/s
humid.,
%
clouds,
%
prec.,
mm/h
press.,
hPa
HPBL,
m
17 august, wed
wed1700:00+15w129065 0.1 102536
03:00+13e119548 0.1 102610
06:00+15ese119097 0.3 1025118
09:00+20e1170100 0.3 1025500
12:00+24ne124974 0.0 10241239
15:00+25nne234415 0.0 10241701
18:00+22e25575 0.0 1024191
21:00+15se25785 0.0 102590
18 august, thu
thu1800:00+14sse248378 0.0 102567
03:00+13sse22905 0.0 102634
06:00+16sse23781 0.0 1026152
09:00+22s22550 0.0 1026700
12:00+26s21445 0.0 10261454
15:00+26s1141100 0.0 10261728
18:00+23sse2258100 0.0 102644
21:00+18s2272100 0.0 102739
19 august, fri
fri1900:00+17ssw257487 0.0 102894
03:00+15ssw248125 0.1 102871
06:00+17sw248770 0.4 1029124
09:00+24wsw24578 0.4 1029531
12:00+28w35386 0.0 10292096
15:00+27w364194 0.0 1028914
18:00+24wnw235125 0.0 102849
21:00+20wnw236258 0.0 102857
20 august, sat
sat2000:00+18w237129 0.0 102953
03:00+19nw237074 0.0 102958
06:00+19wnw246997 0.0 1030128
09:00+21nw146321 0.0 1030199
12:00+29nw343330 0.0 10292641
15:00+29nw243159 0.0 10282540
18:00+24nnw115131 0.0 102835
21:00+22se1158100 0.0 102814
21 august, sun
sun2100:00+19w226393 0.0 102826
03:00+20nnw2563100 0.0 1029128
06:00+19nnw126711 0.0 102999
09:00+24nw125264 0.0 1029392
12:00+29nnw123452 0.0 10282585
15:00+26n244556 0.0 1028426
18:00+24e01515 0.0 102711
21:00+19s11675 0.0 102811